This demonstration page uses our WeatherBlox Daily Observations layout. Learn more.

Left ArrowRight Arrow

44.8408, -93.29828

Hourly Observations for November 13, 2015

Temp ( °F °C ) Dew Point ( °F °C ) Humidity (%) Winds ( mph kmh ) Pressure ( in mb ) Visibility ( mi km ) Precip ( " mm )
12:53 am 00:53 Mostly Cloudy 37 2.8 27 -2.8 67 67 WNW 12 19 29.98 1015 10 16 0.00 0.00
1:53 am 01:53 Mostly Cloudy 36 2.2 28 -2.2 73 73 W 17 28 29.98 1015 10 16 0.00 0.00
2:53 am 02:53 Mostly Clear 34 1.1 26 -3.3 73 73 WNW 16 26 29.99 1016 10 16 0.00 0.00
3:53 am 03:53 Clear 34 1.1 26 -3.3 73 73 W 12 19 30.00 1016 10 16 0.00 0.00
4:53 am 04:53 Mostly Clear 33 0.6 26 -3.3 75 75 W 15 24 30.02 1017 10 16 0.00 0.00
5:53 am 05:53 Mostly Clear 32 0 26 -3.3 79 79 W 12 19 30.05 1018 10 16 0.00 0.00
6:53 am 06:53 Mostly Clear 32 0 26 -3.3 79 79 W 10 17 30.07 1018 10 16 0.00 0.00
7:53 am 07:53 Mostly Sunny 33 0.6 26 -3.3 75 75 W 12 19 30.10 1019 10 16 0.00 0.00
8:53 am 08:53 Mostly Sunny 35 1.7 26 -3.3 70 70 WNW 14 22 30.12 1020 10 16 0.00 0.00
9:53 am 09:53 Sunny 38 3.3 26 -3.3 62 62 WNW 16 26 30.14 1021 10 16 0.00 0.00
10:53 am 10:53 Sunny 40 4.4 25 -3.9 55 55 WNW 18 30 30.14 1021 10 16 0.00 0.00
11:53 am 11:53 Sunny 42 5.6 25 -3.9 51 51 WNW 17 28 30.14 1021 10 16 0.00 0.00
12:53 pm 12:53 Sunny 43 6.1 24 -4.4 47 47 WNW 15 24 30.14 1021 10 16 0.00 0.00
1:53 pm 13:53 Sunny 45 7.2 24 -4.4 44 44 NW 14 22 30.14 1021 10 16 0.00 0.00
2:53 pm 14:53 Sunny 44 6.7 22 -5.6 41 41 WNW 14 22 30.14 1021 10 16 0.00 0.00
5:53 pm 17:53 Clear 40 4.4 24 -4.4 53 53 SW 6 9 30.18 1022 10 16 0.00 0.00
6:53 pm 18:53 Clear 39 3.9 25 -3.9 57 57 SW 6 9 30.17 1022 10 16 0.00 0.00
7:53 pm 19:53 Clear 38 3.3 24 -4.4 57 57 SSW 7 11 30.18 1022 10 16 0.00 0.00
8:53 pm 20:53 Clear 36 2.2 25 -3.9 64 64 SSW 6 9 30.17 1022 10 16 0.00 0.00
9:53 pm 21:53 Clear 34 1.1 25 -3.9 70 70 Calm 30.17 1022 10 16 0.00 0.00
10:53 pm 22:53 Clear 35 1.7 25 -3.9 67 67 S 5 7 30.16 1021 10 16 0.00 0.00
11:53 pm 23:53 Clear 33 0.6 25 -3.9 72 72 ESE 6 9 30.14 1021 10 16 0.00 0.00

Powered by AerisWeather